Volver al catálogo

STARLINK-34652

ActivoComunicacionesVLEO
NORAD 64772·PAYLOAD·🇺🇸 United States

Lanzado Jul 8, 2025 desde Cape Canaveral Space Force Station

Loading…

Próximos Pases (próximas 24 horas)

TLE

ActualizadoSource: CelesTrak SupGP

Época: Sep 15, 2026, 02:24 UTC

1 64772C 25147T   26258.10048611 -.00016052  00000+0 -47436-3 0  2589
2 64772  53.1567  78.8822 0001190  88.3215  98.8994 15.34391728    19

Sigue STARLINK-34652 en tiempo real con AllMySat

Download on the App Store